Tracking 20383 objects as of 24-Feb-2020
HD Live streaming from Space Station
objects crossing your sky now
Track the group of recently launched Starlink satellites

GP-B

Track GP-B now!
10-day predictions
GP-B is classified as:


NORAD ID: 28230
Int'l Code: 2004-014A
Perigee: 639.2 km
Apogee: 641.9 km
Inclination: 89.8 °
Period: 97.4 minutes
Semi major axis: 7011 km
RCS: 10.7347 m2 (large)
Launch date: April 20, 2004
Source: United States (US)
Launch site: AIR FORCE WESTERN TEST RANGE (AFWTR)
aabbcc
Your satellite tracking list
Your tracking list is empty




NASA's NSSDC Master Catalog

Two Line Element Set (TLE):
1 28230U 04014A   20054.65448736 +.00000103 +00000-0 +11765-4 0  9996
2 28230 089.8158 101.3237 0001938 095.6577 264.4867 14.78719249311322
Source of the keplerian elements: AFSPC